Plattsmouth, NE

10:41 PM CDT on October 23, 2019 (GMT -0500)
Plattsmouth Municipal

Weather History for KPMV - August, 2019

Change the Weather History Date:

Monday, August 19, 2019

  Actual Average (WUND) Record (WUND)
Temperature  
Mean Temperature 77 °F -  
Max Temperature 88 °F - - (-1)
Min Temperature 66 °F - - (-1)
Cooling Degree Days 12    
Growing Degree Days 27 (Base 50)    
Moisture  
Dew Point 72 °F    
Average Humidity 88    
Maximum Humidity 100    
Minimum Humidity 67    
Precipitation  
Precipitation 0.00 in - - ()
Sea Level Pressure  
Sea Level Pressure 29.97 in    
Wind  
Wind Speed 3 mph (ESE)    
Max Wind Speed 10 mph    
Max Gust Speed -    
Visibility 8 miles    
Events Fog    
Averages and records for this station are not official NWS values.
T = Trace of Precipitation, MM = Missing Value Source: NWS Daily Summary

Daily Weather History Graph

Daily Weather History Graph

Search for Another Location

Airport or City:

Astronomy

Aug. 19, 2019 Rise Set
Actual Time 6:37 AM CDT 8:16 PM CDT
Civil Twilight 6:08 AM CDT 8:45 PM CDT
Nautical Twilight 5:32 AM CDT 9:20 PM CDT
Astronomical Twilight 4:55 AM CDT 9:58 PM CDT
Moon 10:36 PM CDT (8/19) 10:21 AM CDT (8/19)
Length of Visible Light 14h 37m
Length of Day
13h 39m
Waning Gibbous, 85% of the Moon is Illuminated
Aug 19
Waning Gibbous
Aug 23
Last Quarter
Aug 30
New
Sep 5
First Quarter
Sep 13
Full

Hourly Weather History & Observations

Time (CDT) Temp. Heat Index Dew Point Humidity Pressure Visibility Wind Dir Wind Speed Gust Speed Precip Events Conditions
12:15 AM 68.2 °F - 68.0 °F 99% 29.96 in 7.0 mi Calm Calm - N/A   Clear
12:35 AM 67.3 °F - 67.3 °F 100% 29.96 in 5.0 mi Calm Calm - N/A   Clear
12:55 AM 67.3 °F - 67.3 °F 100% 29.97 in 5.0 mi Calm Calm - N/A   Clear
1:15 AM 67.8 °F - 67.8 °F 100% 29.97 in 7.0 mi Calm Calm - N/A   Clear
1:35 AM 66.7 °F - 66.7 °F 100% 29.97 in 5.0 mi Calm Calm - N/A   Clear
1:55 AM 67.1 °F - 67.1 °F 100% 29.97 in 5.0 mi NNW 3.5 mph - N/A   Scattered Clouds
2:15 AM 67.3 °F - 67.3 °F 100% 29.97 in 5.0 mi NNW 4.6 mph - N/A   Mostly Cloudy
2:35 AM 67.6 °F - 67.6 °F 100% 29.97 in 5.0 mi Calm Calm - N/A   Overcast
2:55 AM 68.0 °F - 68.0 °F 100% 29.97 in 7.0 mi Calm Calm - N/A   Overcast
3:15 AM 67.6 °F - 67.6 °F 100% 29.97 in 7.0 mi Calm Calm - N/A   Overcast
3:35 AM 67.3 °F - 67.3 °F 100% 29.97 in 5.0 mi Calm Calm - N/A   Overcast
3:55 AM 68.0 °F - 68.0 °F 100% 29.98 in 7.0 mi Calm Calm - N/A   Overcast
4:15 AM 68.0 °F - 68.0 °F 100% 29.98 in 5.0 mi Calm Calm - N/A   Overcast
4:35 AM 67.5 °F - 67.5 °F 100% 29.98 in 7.0 mi Calm Calm - N/A   Mostly Cloudy
4:55 AM 66.9 °F - 66.9 °F 100% 29.98 in 5.0 mi Calm Calm - N/A   Mostly Cloudy
5:15 AM 67.1 °F - 67.1 °F 100% 29.98 in 4.0 mi Calm Calm - N/A   Scattered Clouds
5:35 AM 66.2 °F - 66.2 °F 100% 29.99 in 3.0 mi Calm Calm - N/A   Scattered Clouds
5:55 AM 66.4 °F - 66.4 °F 100% 29.99 in 2.0 mi Calm Calm - N/A   Mostly Cloudy
6:15 AM 66.0 °F - 66.0 °F 100% 30.00 in 0.5 mi Calm Calm - N/A Fog Fog
6:35 AM 66.4 °F - 66.4 °F 100% 30.01 in 4.0 mi Calm Calm - N/A   Overcast
6:55 AM 66.4 °F - 66.4 °F 100% 30.01 in 1.8 mi Calm Calm - N/A   Overcast
7:15 AM 66.6 °F - 66.6 °F 100% 30.01 in 1.2 mi Calm Calm - N/A   Scattered Clouds
7:35 AM 67.5 °F - 67.5 °F 100% 30.01 in 3.0 mi Calm Calm - N/A   Scattered Clouds
7:55 AM 68.5 °F - 68.5 °F 100% 30.02 in 7.0 mi Calm Calm - N/A   Scattered Clouds
8:15 AM 69.1 °F - 69.1 °F 100% 30.02 in 7.0 mi Calm Calm - N/A   Clear
8:35 AM 69.8 °F - 69.8 °F 100% 30.02 in 7.0 mi ENE 3.5 mph - N/A   Clear
8:55 AM 71.1 °F - 70.7 °F 99% 30.02 in 10.0 mi East 3.5 mph - N/A   Scattered Clouds
9:15 AM 72.5 °F - 71.1 °F 95% 30.02 in 10.0 mi ENE 3.5 mph - N/A   Scattered Clouds
9:35 AM 73.6 °F - 70.7 °F 91% 30.01 in 10.0 mi East 6.9 mph - N/A   Clear
9:55 AM 74.3 °F - 70.5 °F 88% 30.02 in 10.0 mi East 5.8 mph - N/A   Scattered Clouds
10:15 AM 76.3 °F - 71.8 °F 86% 30.03 in 10.0 mi ESE 4.6 mph - N/A   Scattered Clouds
10:35 AM 77.2 °F - 71.6 °F 83% 30.03 in 10.0 mi East 3.5 mph - N/A   Mostly Cloudy
10:55 AM 77.7 °F - 71.8 °F 82% 30.02 in 10.0 mi SE 3.5 mph - N/A   Scattered Clouds
11:15 AM 78.8 °F - 72.7 °F 81% 30.02 in 10.0 mi East 3.5 mph - N/A   Clear
11:35 AM 79.9 °F - 72.5 °F 78% 30.02 in 10.0 mi East 5.8 mph - N/A   Clear
11:55 AM 80.6 °F 84.2 °F 70.7 °F 72% 30.01 in 10.0 mi East 5.8 mph - N/A   Clear
12:15 PM 82.0 °F 87.0 °F 72.1 °F 72% 30.01 in 10.0 mi East 5.8 mph - N/A   Clear
12:35 PM 83.3 °F 88.4 °F 71.8 °F 68% 30.01 in 10.0 mi East 5.8 mph - N/A   Clear
12:50 PM 83.3 °F 89.0 °F 72.7 °F 70% 30.01 in 10.0 mi ESE 5.8 mph - N/A   Clear
2:35 PM 86.9 °F 96.4 °F 75.2 °F 68% 29.98 in 10.0 mi SE 4.6 mph - N/A   Unknown
2:55 PM 86.9 °F 96.4 °F 75.4 °F 68% 29.97 in 10.0 mi ESE 9.2 mph - N/A   Clear
3:15 PM 87.3 °F 97.2 °F 75.4 °F 68% 29.96 in 10.0 mi ESE 6.9 mph - N/A   Clear
3:35 PM 88.0 °F 98.5 °F 75.9 °F 67% 29.96 in 10.0 mi ESE 6.9 mph - N/A   Scattered Clouds
3:55 PM 87.8 °F 98.1 °F 75.6 °F 67% 29.96 in 10.0 mi SE 8.1 mph - N/A   Scattered Clouds
4:15 PM 87.6 °F 98.2 °F 76.1 °F 68% 29.94 in 10.0 mi SE 6.9 mph - N/A   Scattered Clouds
4:35 PM 88.5 °F 101.6 °F 77.5 °F 70% 29.94 in 10.0 mi ESE 5.8 mph - N/A   Scattered Clouds
4:55 PM 88.0 °F 100.7 °F 77.5 °F 71% 29.94 in 10.0 mi ESE 8.1 mph - N/A   Scattered Clouds
5:15 PM 88.5 °F 101.1 °F 77.2 °F 69% 29.94 in 10.0 mi ESE 6.9 mph - N/A   Clear
5:35 PM 88.0 °F 100.2 °F 77.0 °F 70% 29.94 in 10.0 mi ESE 6.9 mph - N/A   Scattered Clouds
5:55 PM 86.9 °F 98.3 °F 76.8 °F 72% 29.94 in 10.0 mi ESE 8.1 mph - N/A   Scattered Clouds
6:15 PM 86.4 °F 96.9 °F 76.3 °F 72% 29.94 in 10.0 mi ESE 5.8 mph - N/A   Scattered Clouds
6:35 PM 86.4 °F 97.8 °F 77.0 °F 74% 29.93 in 10.0 mi ESE 6.9 mph - N/A   Scattered Clouds
6:55 PM 83.8 °F 93.5 °F 77.0 °F 80% 29.92 in 10.0 mi ESE 6.9 mph - N/A   Scattered Clouds
7:15 PM 83.3 °F 92.8 °F 77.2 °F 82% 29.93 in 10.0 mi East 4.6 mph - N/A   Scattered Clouds
7:35 PM 83.3 °F 92.8 °F 77.4 °F 82% 29.92 in 10.0 mi ESE 6.9 mph - N/A   Mostly Cloudy
7:55 PM 83.3 °F 92.4 °F 77.0 °F 81% 29.92 in 10.0 mi ESE 5.8 mph - N/A   Mostly Cloudy
8:15 PM 82.4 °F 90.9 °F 77.0 °F 84% 29.92 in 10.0 mi ESE 5.8 mph - N/A   Scattered Clouds
8:35 PM 82.4 °F 90.9 °F 77.0 °F 84% 29.92 in 10.0 mi ESE 6.9 mph - N/A   Clear
8:55 PM 82.0 °F 90.2 °F 77.0 °F 85% 29.92 in 10.0 mi ESE 8.1 mph - N/A   Clear
9:15 PM 81.7 °F 89.5 °F 77.0 °F 86% 29.93 in 10.0 mi ESE 6.9 mph - N/A   Scattered Clouds
9:35 PM 81.5 °F 89.2 °F 77.2 °F 87% 29.94 in 10.0 mi ESE 8.1 mph - N/A   Mostly Cloudy
9:55 PM 81.0 °F 87.9 °F 77.2 °F 88% 29.94 in 10.0 mi SE 8.1 mph - N/A   Scattered Clouds
10:15 PM 80.6 °F 87.3 °F 77.5 °F 90% 29.94 in 10.0 mi SE 6.9 mph - N/A   Scattered Clouds
10:35 PM 80.8 °F 87.8 °F 77.5 °F 90% 29.94 in 10.0 mi SE 8.1 mph - N/A   Scattered Clouds
10:55 PM 81.1 °F 88.9 °F 77.9 °F 90% 29.94 in 10.0 mi SE 9.2 mph - N/A   Clear
11:15 PM 80.8 °F 87.8 °F 77.7 °F 90% 29.94 in 10.0 mi SE 10.4 mph - N/A   Clear
11:35 PM 80.6 °F 87.5 °F 77.9 °F 91% 29.94 in 10.0 mi SE 8.1 mph - N/A   Clear
11:55 PM 80.2 °F 86.8 °F 77.9 °F 93% 29.94 in 10.0 mi ESE 5.8 mph - N/A   Clear